Regional Weather Roundup
Issued by NWS Albany, NY

Home | Current Version | Previous Version | Graphics & Text | Print | Product List | Glossary On
Versions: 1 2 3 4 5 6 7 8 9 10 11 12 13 14 15 16 17 18 19 20 21 22 23 24 25 26 27 28 29 30 31 32 33 34 35 36 37 38 39 40 41 42 43 44 45 46 47 48 49 50
000
ASUS41 KALY 260010
RWRALY

NEW YORK STATE HOURLY WEATHER ROUNDUP
NATIONAL WEATHER SERVICE ALBANY NY
800 PM EDT SAT MAR 25 2017

NOTE: "FAIR" INDICATES FEW OR NO CLOUDS BELOW 12,000 FEET WITH NO
SIGNIFICANT WEATHER AND/OR NO OBSTRUCTIONS TO VISIBILITY.

NYZ032-033-038>043-046>054-057>066-NYZ062>081-082-084-260100-
EAST


CITY           SKY/WX    TMP DP  RH WIND       PRES   REMARKS
ALBANY         CLOUDY    37  30  75 N7        30.39R WCI  32
GLENS FALLS    CLOUDY    35  27  72 NE8       30.40R WCI  29
POUGHKEEPSIE   CLOUDY    36  34  92 N6        30.36R WCI  31
NEWBURGH       MOCLDY    37  36  93 E8        30.35R WCI  31
MONTGOMERY     CLOUDY    38  35  89 N5        30.35R WCI  34
WHITE PLAINS   CLOUDY    43  40  89 N9        30.33R
ISLIP          CLOUDY    43  39  86 N14G20    30.33R
NEW YORK CITY  CLOUDY    48  40  73 NE15      30.32R
CENTRAL PARK   CLOUDY    47  41  80 N9        30.34R
$$

NYZ005>009-017-018-044>046-055-056-260100-
CENTRAL


CITY           SKY/WX    TMP DP  RH WIND       PRES   REMARKS
FULTON         CLOUDY    37  31  78 N7        30.37R WCI  32
SYRACUSE       CLOUDY    37  36  96 CALM      30.36R
ROME           CLOUDY    36  35  96 SE5       30.39R WCI  32
ELMIRA         CLOUDY    37  33  85 NE5       30.34R WCI  33
BINGHAMTON     CLOUDY    36  35  96 NE3       30.30R
MONTICELLO     CLOUDY    37  36  93 E6        30.31R VSB 3/4 WCI  33
$$

NYZ026>034-041>043-087-260100-
NORTH


CITY           SKY/WX    TMP DP  RH WIND       PRES   REMARKS
WATERTOWN      CLOUDY    34  29  82 NE12      30.41R WCI  25
FORT DRUM      NOT AVBL
MASSENA        CLEAR     30  25  81 CALM      30.45R
SARANAC LAKE   CLEAR     22  21  96 NE5       30.34R WCI  16
PLATTSBURGH    CLEAR     28  19  69 CALM      30.45R
$$

NYZ001>004-010>016-019>021-085-260100-
WEST


CITY           SKY/WX    TMP DP  RH WIND       PRES   REMARKS
NIAGARA FALLS  CLOUDY    37  30  75 E17       30.30F WCI  27
BUFFALO        CLOUDY    36  32  85 E13       30.32F WCI  27
DUNKIRK        CLOUDY    39  36  89 E13       30.26F WCI  31
JAMESTOWN      CLOUDY    43  37  81 NE10      30.21S
WELLSVILLE     CLOUDY    37  35  92 E8        30.29R WCI  31
ROCHESTER      CLOUDY    36  31  82 E13       30.38R WCI  27
PENN YAN       FOG       35  32  88 CALM      30.36R VSB 3/4
$$

             KEY
       WCI = WIND CHILL INDEX
       VSB = VISIBILITY
       HX  = HEAT INDEX
$$



USA.gov is the U.S. government's official web portal to all federal, state and local government web resources and services.